When you browse on this site, cookies collect data to enhance your experience and personalize the content and advertising you see.
Visit our Privacy Policy to learn more. By continuing to use the site, you agree to this use of cookies and data.
  • In Österreich
  • Länderverzeichnis
  • Für 7 Tage
  • Wassertemperatur
  • Satellitenkarten
  • Wetterkarte
  • News
  • Widgets
  • user-avatar
    Anmelden

    Stündliche Wetter La Massana

    Heute, 24 März, Sonntag

    Zeit Temperatur Niederschläge Wind Luftdruck Luftfeuchtigkeit
    00:00 +3°C° 0 mm 1 m/S 612 mmHg 70%
    01:00 +3°C° 0 mm 1 m/S 612 mmHg 70%
    02:00 +2°C° 0 mm 1 m/S 612 mmHg 70%
    03:00 +2°C° 0 mm 1 m/S 612 mmHg 70%
    04:00 +2°C° 0 mm 1 m/S 612 mmHg 69%
    05:00 +2°C° 0 mm 1 m/S 612 mmHg 67%
    06:00 +2°C° 0 mm 1 m/S 612 mmHg 66%
    07:00 +4°C° 0 mm 1 m/S 613 mmHg 59%
    08:00 +7°C° 0 mm 1 m/S 614 mmHg 51%
    09:00 +10°C° 0 mm 1 m/S 615 mmHg 44%
    10:00 +11°C° 0 mm 1 m/S 616 mmHg 41%
    11:00 +12°C° 0 mm 1 m/S 616 mmHg 38%
    12:00 +13°C° 0 mm 1 m/S 616 mmHg 36%
    13:00 +12°C° 0.1 mm 1 m/S 616 mmHg 39%
    14:00 +12°C° 0.1 mm 1 m/S 615 mmHg 42%
    15:00 +10°C° 0.1 mm 2 m/S 615 mmHg 45%
    16:00 +9°C° 0.4 mm 2 m/S 614 mmHg 55%
    17:00 +7°C° 0.4 mm 2 m/S 613 mmHg 66%
    18:00 +6°C° 0.4 mm 1 m/S 612 mmHg 77%
    19:00 +5°C° 0.1 mm 1 m/S 612 mmHg 81%
    20:00 +4°C° 0.1 mm 1 m/S 612 mmHg 85%
    21:00 +3°C° 0.1 mm 1 m/S 612 mmHg 89%
    22:00 +2°C° 0 mm 1 m/S 611 mmHg 88%
    23:00 +2°C° 0 mm 1 m/S 611 mmHg 88%

    Morgen, 25 März, Montag

    Zeit Temperatur Niederschläge Wind Luftdruck Luftfeuchtigkeit
    00:00 +2°C° 0 mm 1 m/S 611 mmHg 87%
    01:00 +1°C° 0 mm 1 m/S 611 mmHg 84%
    02:00 +1°C° 0 mm 1 m/S 610 mmHg 81%
    03:00 +1°C° 0 mm 1 m/S 610 mmHg 79%
    04:00 0°C° 0 mm 1 m/S 610 mmHg 78%
    05:00 -2°C° 0 mm 2 m/S 610 mmHg 76%
    06:00 -2°C° 0 mm 2 m/S 610 mmHg 75%
    07:00 +1°C° 0 mm 2 m/S 611 mmHg 69%
    08:00 +3°C° 0 mm 2 m/S 612 mmHg 63%
    09:00 +5°C° 0 mm 2 m/S 613 mmHg 57%
    10:00 +6°C° 0 mm 2 m/S 613 mmHg 54%
    11:00 +7°C° 0 mm 2 m/S 613 mmHg 52%
    12:00 +8°C° 0 mm 2 m/S 613 mmHg 49%
    13:00 +8°C° 0 mm 3 m/S 613 mmHg 50%
    14:00 +7°C° 0 mm 3 m/S 612 mmHg 52%
    15:00 +7°C° 0 mm 3 m/S 612 mmHg 53%
    16:00 +4°C° 0 mm 3 m/S 611 mmHg 60%
    17:00 +2°C° 0 mm 3 m/S 610 mmHg 68%
    18:00 -1°C° 0 mm 3 m/S 609 mmHg 75%
    19:00 -2°C° 0 mm 3 m/S 609 mmHg 77%
    20:00 -2°C° 0 mm 3 m/S 609 mmHg 80%
    21:00 -4°C° 0 mm 3 m/S 609 mmHg 82%
    22:00 -4°C° 0 mm 3 m/S 610 mmHg 83%
    23:00 -4°C° 0 mm 3 m/S 610 mmHg 85%

    übermorgen, 26 März, Dienstag

    Zeit Temperatur Niederschläge Wind Luftdruck Luftfeuchtigkeit
    00:00 -4°C° 0 mm 4 m/S 610 mmHg 87%
    01:00 -4°C° 0 mm 4 m/S 610 mmHg 85%
    02:00 -5°C° 0 mm 4 m/S 610 mmHg 83%
    03:00 -5°C° 0 mm 4 m/S 610 mmHg 82%
    04:00 -6°C° 0 mm 3 m/S 609 mmHg 77%
    05:00 -7°C° 0 mm 3 m/S 609 mmHg 73%
    06:00 -7°C° 0 mm 3 m/S 609 mmHg 68%
    07:00 -5°C° 0 mm 3 m/S 610 mmHg 53%
    08:00 -3°C° 0 mm 4 m/S 611 mmHg 38%
    09:00 -1°C° 0 mm 4 m/S 612 mmHg 24%
    10:00 +1°C° 0 mm 4 m/S 613 mmHg 22%
    11:00 +3°C° 0 mm 4 m/S 613 mmHg 21%
    12:00 +4°C° 0 mm 4 m/S 613 mmHg 19%
    13:00 +4°C° 0 mm 4 m/S 613 mmHg 23%
    14:00 +4°C° 0 mm 4 m/S 612 mmHg 26%
    15:00 +3°C° 0 mm 4 m/S 612 mmHg 29%
    16:00 +1°C° 0 mm 3 m/S 611 mmHg 37%
    17:00 0°C° 0 mm 3 m/S 611 mmHg 45%
    18:00 -2°C° 0 mm 2 m/S 610 mmHg 53%
    19:00 -3°C° 0 mm 2 m/S 610 mmHg 55%
    20:00 -4°C° 0 mm 2 m/S 611 mmHg 58%
    21:00 -4°C° 0 mm 2 m/S 611 mmHg 61%
    22:00 -5°C° 0 mm 2 m/S 611 mmHg 61%
    23:00 -5°C° 0 mm 2 m/S 611 mmHg 61%

    27 März, Mittwoch

    Zeit Temperatur Niederschläge Wind Luftdruck Luftfeuchtigkeit
    00:00 -5°C° 0 mm 2 m/S 611 mmHg 60%
    01:00 -3°C° 0 mm 1 m/S 611 mmHg 61%
    02:00 -3°C° 0 mm 1 m/S 611 mmHg 61%
    03:00 -3°C° 0 mm 1 m/S 611 mmHg 62%
    04:00 -3°C° 0 mm 1 m/S 611 mmHg 58%
    05:00 -3°C° 0 mm 1 m/S 611 mmHg 54%
    06:00 -3°C° 0 mm 1 m/S 611 mmHg 50%
    07:00 0°C° 0 mm 1 m/S 612 mmHg 41%
    08:00 +3°C° 0 mm 1 m/S 613 mmHg 32%
    09:00 +6°C° 0 mm 1 m/S 615 mmHg 22%
    10:00 +7°C° 0 mm 1 m/S 615 mmHg 23%
    11:00 +7°C° 0 mm 2 m/S 615 mmHg 23%
    12:00 +8°C° 0 mm 2 m/S 616 mmHg 23%
    13:00 +8°C° 0 mm 2 m/S 615 mmHg 27%
    14:00 +7°C° 0 mm 2 m/S 615 mmHg 30%
    15:00 +7°C° 0 mm 2 m/S 614 mmHg 34%
    16:00 +5°C° 0 mm 2 m/S 613 mmHg 43%
    17:00 +3°C° 0 mm 2 m/S 613 mmHg 53%
    18:00 +1°C° 0 mm 2 m/S 612 mmHg 62%
    19:00 -1°C° 0 mm 2 m/S 612 mmHg 66%
    20:00 0°C° 0 mm 1 m/S 612 mmHg 70%
    21:00 -1°C° 0 mm 1 m/S 612 mmHg 74%
    22:00 -1°C° 0 mm 1 m/S 612 mmHg 73%
    23:00 -1°C° 0 mm 1 m/S 612 mmHg 71%

    28 März, Donnerstag

    Zeit Temperatur Niederschläge Wind Luftdruck Luftfeuchtigkeit
    00:00 -1°C° 0 mm 1 m/S 612 mmHg 70%
    01:00 -1°C° 0 mm 1 m/S 612 mmHg 73%
    02:00 -1°C° 0 mm 1 m/S 612 mmHg 77%
    03:00 -1°C° 0 mm 1 m/S 612 mmHg 80%
    04:00 -2°C° 0 mm 1 m/S 612 mmHg 81%
    05:00 -2°C° 0 mm 1 m/S 612 mmHg 81%
    06:00 -2°C° 0 mm 1 m/S 612 mmHg 82%
    07:00 +1°C° 0 mm 1 m/S 613 mmHg 69%
    08:00 +4°C° 0 mm 1 m/S 615 mmHg 56%
    09:00 +6°C° 0 mm 1 m/S 616 mmHg 42%
    10:00 +7°C° 0 mm 1 m/S 616 mmHg 40%
    11:00 +8°C° 0 mm 1 m/S 617 mmHg 38%
    12:00 +10°C° 0 mm 1 m/S 617 mmHg 36%
    13:00 +9°C° 0 mm 1 m/S 616 mmHg 40%
    14:00 +8°C° 0 mm 1 m/S 616 mmHg 44%
    15:00 +8°C° 0 mm 1 m/S 615 mmHg 47%
    16:00 +6°C° 0 mm 1 m/S 614 mmHg 56%
    17:00 +5°C° 0 mm 1 m/S 614 mmHg 65%
    18:00 +2°C° 0 mm 0 m/S 613 mmHg 74%
    19:00 +3°C° 0 mm 1 m/S 613 mmHg 77%
    20:00 +2°C° 0 mm 1 m/S 614 mmHg 81%
    21:00 +1°C° 0 mm 1 m/S 614 mmHg 85%
    22:00 +1°C° 0 mm 1 m/S 614 mmHg 86%
    23:00 +1°C° 0 mm 1 m/S 613 mmHg 88%

    29 März, Freitag

    Zeit Temperatur Niederschläge Wind Luftdruck Luftfeuchtigkeit
    00:00 +1°C° 0 mm 1 m/S 613 mmHg 89%
    01:00 0°C° 0 mm 1 m/S 613 mmHg 89%
    02:00 0°C° 0 mm 1 m/S 613 mmHg 90%
    03:00 -1°C° 0 mm 0 m/S 613 mmHg 91%
    04:00 0°C° 0 mm 1 m/S 613 mmHg 90%
    05:00 0°C° 0 mm 1 m/S 613 mmHg 90%
    06:00 -1°C° 0 mm 1 m/S 613 mmHg 90%
    07:00 +1°C° 0.1 mm 1 m/S 614 mmHg 80%
    08:00 +3°C° 0.1 mm 1 m/S 614 mmHg 71%
    09:00 +5°C° 0.1 mm 1 m/S 615 mmHg 61%
    10:00 +5°C° 0.1 mm 1 m/S 615 mmHg 62%
    11:00 +5°C° 0.1 mm 1 m/S 615 mmHg 63%
    12:00 +5°C° 0.1 mm 1 m/S 614 mmHg 65%
    13:00 +5°C° 0.3 mm 1 m/S 614 mmHg 66%
    14:00 +4°C° 0.3 mm 1 m/S 613 mmHg 68%
    15:00 +4°C° 0.3 mm 1 m/S 613 mmHg 69%
    16:00 +4°C° 0.4 mm 1 m/S 613 mmHg 74%
    17:00 +3°C° 0.4 mm 1 m/S 612 mmHg 78%
    18:00 +3°C° 0.4 mm 1 m/S 612 mmHg 82%
    19:00 +2°C° 0.2 mm 1 m/S 612 mmHg 84%
    20:00 +2°C° 0.2 mm 1 m/S 613 mmHg 86%
    21:00 +1°C° 0.2 mm 1 m/S 613 mmHg 89%
    22:00 +1°C° 0.1 mm 1 m/S 612 mmHg 90%
    23:00 0°C° 0.1 mm 1 m/S 612 mmHg 90%
    Mehr zeigen